Tracking 29591 objects as of 19-Sep-2024
HD Live streaming from Space Station
objects crossing your sky now

CUTE-LASP

Track CUTE-LASP now!
10-day predictions
CUTE-LASP is classified as:


NORAD ID: 49263
Int'l Code: 2021-088D
Perigee: 486.8 km
Apogee: 506.0 km
Inclination: 97.5 °
Period: 94.4 minutes
Semi major axis: 6867 km
RCS: Unknown
Launch date: September 27, 2021
Source: United States (US)
Launch site: AIR FORCE WESTERN TEST RANGE (AFWTR)

Uplink (MHz):
Downlink (MHz): 437.250/2402.000
Beacon (MHz):
Mode: 9k6*/19k2GMSK 1MbpsBPSK
Call sign: CUTE
Status: Active

Your satellite tracking list
Your tracking list is empty




NASA's NSSDC Master Catalog

Two Line Element Set (TLE):
1 49263U 21088D   24262.74716544  .00034873  00000-0  13709-2 0  9994
2 49263  97.4871 328.3995 0013954 116.5553 243.7117 15.25499278163871
Source of the keplerian elements: AMSAT